EN

Hourly Weather Acatzingo de Hidalgo

Today, 30 November, Monday

Time Temperature Precipitation Wind Pressure Humidity
00:00 +14°C° 0 mm 2 mps 589 mmHg 82%
01:00 +14°C° 0 mm 2 mps 589 mmHg 81%
02:00 +14°C° 0 mm 2 mps 589 mmHg 80%
03:00 +14°C° 0 mm 2 mps 589 mmHg 80%
04:00 +14°C° 0 mm 2 mps 589 mmHg 80%
05:00 +14°C° 0 mm 2 mps 590 mmHg 80%
06:00 +14°C° 0 mm 3 mps 590 mmHg 77%
07:00 +14°C° 0 mm 3 mps 591 mmHg 75%
08:00 +14°C° 0 mm 4 mps 591 mmHg 72%
09:00 +15°C° 0 mm 4 mps 591 mmHg 68%
10:00 +17°C° 0 mm 3 mps 592 mmHg 63%
11:00 +17°C° 0 mm 3 mps 592 mmHg 58%
12:00 +17°C° 0 mm 3 mps 591 mmHg 59%
13:00 +18°C° 0 mm 3 mps 591 mmHg 59%
14:00 +18°C° 0 mm 3 mps 590 mmHg 60%
15:00 +16°C° 0 mm 3 mps 590 mmHg 65%
16:00 +14°C° 0 mm 3 mps 590 mmHg 69%
17:00 +13°C° 0 mm 3 mps 589 mmHg 74%
18:00 +12°C° 0 mm 3 mps 590 mmHg 77%
19:00 +11°C° 0 mm 3 mps 590 mmHg 79%
20:00 +11°C° 0 mm 3 mps 590 mmHg 82%
21:00 +10°C° 0 mm 2 mps 590 mmHg 83%
22:00 +10°C° 0 mm 2 mps 590 mmHg 84%
23:00 +10°C° 0 mm 2 mps 590 mmHg 85%

Tomorrow, 1 December, Tuesday

Time Temperature Precipitation Wind Pressure Humidity
00:00 +10°C° 0 mm 2 mps 589 mmHg 86%
01:00 +9°C° 0 mm 2 mps 589 mmHg 87%
02:00 +9°C° 0 mm 2 mps 588 mmHg 88%
03:00 +9°C° 0 mm 2 mps 588 mmHg 89%
04:00 +8°C° 0 mm 2 mps 588 mmHg 90%
05:00 +8°C° 0 mm 2 mps 588 mmHg 91%
06:00 +9°C° 0 mm 2 mps 589 mmHg 85%
07:00 +12°C° 0 mm 2 mps 589 mmHg 79%
08:00 +13°C° 0 mm 2 mps 590 mmHg 72%
09:00 +14°C° 0 mm 3 mps 590 mmHg 66%
10:00 +16°C° 0 mm 3 mps 591 mmHg 60%
11:00 +18°C° 0 mm 4 mps 591 mmHg 54%
12:00 +19°C° 0 mm 4 mps 590 mmHg 53%
13:00 +19°C° 0 mm 5 mps 590 mmHg 53%
14:00 +19°C° 0 mm 5 mps 589 mmHg 52%
15:00 +18°C° 0 mm 4 mps 589 mmHg 58%
16:00 +16°C° 0 mm 3 mps 588 mmHg 64%
17:00 +15°C° 0 mm 2 mps 587 mmHg 70%
18:00 +14°C° 0 mm 2 mps 587 mmHg 74%
19:00 +13°C° 0 mm 1 mps 587 mmHg 79%
20:00 +12°C° 0 mm 1 mps 587 mmHg 83%
21:00 +12°C° 0 mm 1 mps 587 mmHg 85%
22:00 +12°C° 0 mm 1 mps 587 mmHg 86%
23:00 +11°C° 0 mm 0 mps 587 mmHg 87%

Day after tomorrow, 2 December, Wednesday

Time Temperature Precipitation Wind Pressure Humidity
00:00 +10°C° 0 mm 0 mps 586 mmHg 88%
01:00 +10°C° 0 mm 0 mps 586 mmHg 90%
02:00 +9°C° 0 mm 0 mps 585 mmHg 91%
03:00 +9°C° 0 mm 0 mps 585 mmHg 91%
04:00 +9°C° 0 mm 0 mps 585 mmHg 91%
05:00 +8°C° 0 mm 0 mps 585 mmHg 92%
06:00 +10°C° 0 mm 0 mps 586 mmHg 84%
07:00 +12°C° 0 mm 0 mps 587 mmHg 77%
08:00 +14°C° 0 mm 0 mps 589 mmHg 70%
09:00 +16°C° 0 mm 1 mps 589 mmHg 61%
10:00 +18°C° 0 mm 2 mps 590 mmHg 52%
11:00 +20°C° 0 mm 3 mps 590 mmHg 44%
12:00 +20°C° 0 mm 3 mps 590 mmHg 41%
13:00 +21°C° 0 mm 4 mps 589 mmHg 39%
14:00 +21°C° 0 mm 4 mps 589 mmHg 37%
15:00 +19°C° 0 mm 4 mps 589 mmHg 41%
16:00 +18°C° 0 mm 3 mps 588 mmHg 46%
17:00 +16°C° 0 mm 3 mps 588 mmHg 50%
18:00 +15°C° 0 mm 2 mps 588 mmHg 54%
19:00 +14°C° 0 mm 1 mps 588 mmHg 58%
20:00 +12°C° 0 mm 0 mps 588 mmHg 62%
21:00 +12°C° 0 mm 0 mps 588 mmHg 65%
22:00 +12°C° 0 mm 1 mps 587 mmHg 68%
23:00 +12°C° 0 mm 1 mps 587 mmHg 71%

3 December, Thursday

Time Temperature Precipitation Wind Pressure Humidity
00:00 +11°C° 0 mm 1 mps 587 mmHg 74%
01:00 +11°C° 0 mm 1 mps 586 mmHg 77%
02:00 +10°C° 0 mm 1 mps 586 mmHg 80%
03:00 +10°C° 0 mm 1 mps 586 mmHg 81%
04:00 +10°C° 0 mm 1 mps 586 mmHg 82%
05:00 +10°C° 0 mm 1 mps 586 mmHg 83%
06:00 +11°C° 0 mm 1 mps 587 mmHg 76%
07:00 +13°C° 0 mm 1 mps 589 mmHg 69%
08:00 +15°C° 0 mm 1 mps 590 mmHg 62%
09:00 +16°C° 0 mm 2 mps 590 mmHg 57%
10:00 +18°C° 0 mm 3 mps 591 mmHg 52%
11:00 +19°C° 0 mm 3 mps 591 mmHg 46%
12:00 +20°C° 0 mm 4 mps 591 mmHg 45%
13:00 +20°C° 0 mm 4 mps 590 mmHg 44%
14:00 +21°C° 0 mm 5 mps 590 mmHg 43%
15:00 +19°C° 0 mm 4 mps 590 mmHg 50%
16:00 +18°C° 0 mm 4 mps 589 mmHg 57%
17:00 +16°C° 0 mm 3 mps 589 mmHg 64%
18:00 +14°C° 0 mm 3 mps 589 mmHg 71%
19:00 +14°C° 0 mm 2 mps 589 mmHg 77%
20:00 +13°C° 0 mm 2 mps 589 mmHg 84%
21:00 +12°C° 0 mm 2 mps 589 mmHg 85%
22:00 +12°C° 0 mm 2 mps 588 mmHg 87%
23:00 +11°C° 0 mm 1 mps 588 mmHg 89%

4 December, Friday

Time Temperature Precipitation Wind Pressure Humidity
00:00 +11°C° 0 mm 1 mps 588 mmHg 89%
01:00 +11°C° 0 mm 1 mps 588 mmHg 90%
02:00 +11°C° 0 mm 1 mps 587 mmHg 90%
03:00 +10°C° 0 mm 1 mps 587 mmHg 91%
04:00 +10°C° 0 mm 1 mps 587 mmHg 91%
05:00 +10°C° 0 mm 1 mps 587 mmHg 91%
06:00 +10°C° 0 mm 2 mps 588 mmHg 84%
07:00 +13°C° 0 mm 2 mps 590 mmHg 77%
08:00 +14°C° 0 mm 2 mps 591 mmHg 69%
09:00 +16°C° 0 mm 2 mps 591 mmHg 62%
10:00 +17°C° 0 mm 2 mps 591 mmHg 54%
11:00 +19°C° 0 mm 3 mps 592 mmHg 46%
12:00 +19°C° 0 mm 3 mps 591 mmHg 46%
13:00 +19°C° 0 mm 4 mps 591 mmHg 45%
14:00 +20°C° 0 mm 5 mps 591 mmHg 45%
15:00 +17°C° 0 mm 5 mps 590 mmHg 52%
16:00 +15°C° 0 mm 4 mps 590 mmHg 59%
17:00 +13°C° 0 mm 4 mps 589 mmHg 66%
18:00 +12°C° 0 mm 3 mps 589 mmHg 71%
19:00 +11°C° 0 mm 3 mps 589 mmHg 75%
20:00 +10°C° 0 mm 2 mps 590 mmHg 80%
21:00 +10°C° 0 mm 2 mps 590 mmHg 81%
22:00 +10°C° 0 mm 2 mps 589 mmHg 83%
23:00 +9°C° 0 mm 2 mps 589 mmHg 84%

5 December, Saturday

Time Temperature Precipitation Wind Pressure Humidity
00:00 +9°C° 0 mm 2 mps 589 mmHg 85%
01:00 +9°C° 0 mm 2 mps 589 mmHg 86%
02:00 +8°C° 0 mm 2 mps 589 mmHg 86%
03:00 +8°C° 0 mm 2 mps 588 mmHg 87%
04:00 +8°C° 0 mm 2 mps 588 mmHg 87%
05:00 +7°C° 0 mm 2 mps 588 mmHg 88%
06:00 +9°C° 0 mm 2 mps 589 mmHg 80%
07:00 +10°C° 0 mm 2 mps 590 mmHg 72%
08:00 +13°C° 0 mm 2 mps 591 mmHg 65%
09:00 +14°C° 0 mm 3 mps 592 mmHg 57%
10:00 +16°C° 0 mm 3 mps 592 mmHg 50%
11:00 +18°C° 0 mm 3 mps 593 mmHg 42%
12:00 +18°C° 0 mm 4 mps 592 mmHg 43%
13:00 +18°C° 0 mm 4 mps 592 mmHg 43%
14:00 +19°C° 0 mm 5 mps 591 mmHg 44%
15:00 +17°C° 0 mm 4 mps 591 mmHg 51%
16:00 +14°C° 0 mm 3 mps 590 mmHg 58%
17:00 +12°C° 0 mm 3 mps 589 mmHg 65%
18:00 +12°C° 0 mm 3 mps 589 mmHg 69%
19:00 +12°C° 0 mm 2 mps 589 mmHg 73%
20:00 +10°C° 0 mm 2 mps 589 mmHg 77%
21:00 +9°C° 0 mm 2 mps 589 mmHg 79%
22:00 +9°C° 0 mm 2 mps 589 mmHg 80%
23:00 +9°C° 0 mm 2 mps 589 mmHg 82%
Show more